Location: Boiro
(42.6475°N, 8.8834°W)
Time: 17:52:36
(UTC+01:00)

A-11 Canister half - Pass Details

Date: 05 December 2021
Orbit: 1516 x 1684 km, 47.2° (Epoch: 26 January)

Event Time Altitude Azimuth Distance (km) Brightness Sun altitude
Rises 16:07:25 0° 293° (WNW) 4,921 11.9 15.1°
Reaches altitude 10° 16:11:21 10° 281° (W) 3,941 11.6 14.6°
Maximum altitude 16:18:49 24° 233° (SW) 2,970 12.5 13.7°
Drops below altitude 10° 16:26:18 10° 184° (S) 3,925 12.1 12.8°
Sets 16:30:15 0° 171° (S) 4,895 12.2 12.3°
